Historique des stations

Station météo de Beddes

Altitude de la station : 224 m







Données météorologiques pour le 20/01/2022
Date
Heure
Températures Humidité Point de rosée Vitesse
du vent
Direction Rafales Windchill Pression Pluviométrie
Cumul
Date
Heure
Températures Humidité Point de rosée Vitesse
du vent
Direction Rafales Windchill Pression Pluviométrie
Cumul
20/01/2022 14:306.0 °C80 %2.8 °C---6.1 1034 hPa1 mm
20/01/2022 14:296.0 °C80 %2.8 °C-N18 km/h6.1 1034 hPa1 mm
20/01/2022 14:156.1 °C82 %3.3 °C---6.1 1034 hPa1 mm
20/01/2022 14:146.1 °C82 %3.3 °C-N18 km/h6.1 1034 hPa1 mm
20/01/2022 14:006.2 °C83 %3.3 °C---6.1 1034 hPa1 mm
20/01/2022 13:596.2 °C83 %3.3 °C-N18 km/h6.1 1034 hPa1 mm
20/01/2022 13:455.5 °C87 %3.3 °C-N18 km/h5.6 1034 hPa1 mm
20/01/2022 13:305.9 °C86 %3.9 °C-N18 km/h6.1 1034 hPa1 mm
20/01/2022 13:155.9 °C89 %4.4 °C-N14 km/h6.1 1034 hPa1 mm
20/01/2022 13:145.9 °C89 %4.4 °C-N18 km/h6.1 1034 hPa1 mm
20/01/2022 13:005.5 °C90 %3.9 °C-N18 km/h5.6 1034 hPa1 mm
20/01/2022 12:455.1 °C93 %3.9 °C-N18 km/h5.0 1035 hPa1 mm
20/01/2022 12:304.8 °C94 %3.9 °C-N18 km/h5.0 1035 hPa1 mm
20/01/2022 12:154.9 °C95 %4.4 °C13 km/hN13 km/h1.7 1035 hPa1 mm
20/01/2022 12:004.7 °C96 %4.4 °C---5.0 1035 hPa1 mm
20/01/2022 11:454.7 °C96 %3.9 °C---4.4 1035 hPa1 mm
20/01/2022 11:304.6 °C97 %3.9 °C----1035 hPa1 mm
20/01/2022 11:144.4 °C97 %3.9 °C----1035 hPa1 mm
20/01/2022 10:594.2 °C97 %3.9 °C---4.4 1034 hPa1 mm
20/01/2022 10:444.0 °C97 %3.9 °C---3.9 1034 hPa1 mm
20/01/2022 10:303.9 °C96 %3.3 °C---3.9 1034 hPa1 mm
20/01/2022 10:293.8 °C97 %3.3 °C---3.9 1034 hPa1 mm
20/01/2022 10:143.7 °C97 %3.3 °C---3.9 1034 hPa1 mm
20/01/2022 09:593.4 °C96 %2.8 °C---3.3 1034 hPa1 mm
20/01/2022 09:453.4 °C96 %2.8 °C---3.3 1034 hPa1 mm
20/01/2022 09:443.4 °C96 %2.8 °C---3.3 1034 hPa1 mm
20/01/2022 09:303.4 °C96 %2.8 °C---3.3 1034 hPa1 mm
20/01/2022 09:293.4 °C96 %2.8 °C---3.3 1034 hPa1 mm
20/01/2022 09:153.4 °C96 %2.8 °C---3.3 1034 hPa1 mm
20/01/2022 09:143.4 °C96 %2.8 °C---3.3 1034 hPa1 mm
20/01/2022 09:003.3 °C96 %2.8 °C---3.3 1034 hPa0.8 mm
20/01/2022 08:593.4 °C96 %2.8 °C---3.3 1034 hPa0.8 mm
20/01/2022 08:453.3 °C96 %2.8 °C---3.3 1034 hPa0.8 mm
20/01/2022 08:443.3 °C96 %2.8 °C---3.3 1034 hPa0.8 mm
20/01/2022 08:303.3 °C96 %2.8 °C---3.3 1033 hPa0.8 mm
20/01/2022 08:293.3 °C96 %2.8 °C---3.3 1033 hPa0.8 mm
20/01/2022 08:153.3 °C96 %2.8 °C---3.3 1033 hPa0.8 mm
20/01/2022 08:143.3 °C96 %2.8 °C---3.3 1033 hPa0.8 mm
20/01/2022 08:003.2 °C96 %2.8 °C---3.3 1033 hPa0.8 mm
20/01/2022 07:593.2 °C96 %2.8 °C---3.3 1033 hPa0.8 mm
20/01/2022 07:453.2 °C96 %2.8 °C---3.3 1033 hPa0.8 mm
20/01/2022 07:443.2 °C96 %2.8 °C---3.3 1033 hPa0.8 mm
20/01/2022 07:303.2 °C95 %2.2 °C---3.3 1033 hPa0.8 mm
20/01/2022 07:293.2 °C95 %2.2 °C---3.3 1033 hPa0.8 mm
20/01/2022 07:153.2 °C95 %2.2 °C---3.3 1033 hPa0.6 mm
20/01/2022 07:143.2 °C95 %2.2 °C---3.3 1033 hPa0.6 mm
20/01/2022 07:003.2 °C95 %2.2 °C---3.3 1033 hPa0.2 mm
20/01/2022 06:593.2 °C95 %2.2 °C---3.3 1033 hPa0.2 mm
20/01/2022 06:453.2 °C95 %2.2 °C---3.3 1033 hPa0.2 mm
20/01/2022 06:443.2 °C95 %2.2 °C---3.3 1033 hPa0.2 mm
20/01/2022 06:303.2 °C95 %2.2 °C---3.3 1033 hPa0.2 mm
20/01/2022 06:293.2 °C95 %2.2 °C---3.3 1033 hPa0.2 mm
20/01/2022 06:153.2 °C95 %2.8 °C---3.3 1033 hPa0.2 mm
20/01/2022 06:143.2 °C95 %2.2 °C---3.3 1033 hPa0.2 mm
20/01/2022 06:003.2 °C95 %2.8 °C---3.3 1033 hPa0.2 mm
20/01/2022 05:593.2 °C95 %2.8 °C---3.3 1032 hPa0.2 mm
20/01/2022 05:453.2 °C95 %2.8 °C---3.3 1032 hPa-
20/01/2022 05:443.2 °C95 %2.8 °C---3.3 1032 hPa-
20/01/2022 05:303.2 °C95 %2.8 °C---3.3 1032 hPa-
20/01/2022 05:293.2 °C95 %2.8 °C---3.3 1032 hPa-
20/01/2022 05:153.2 °C94 %2.2 °C---3.3 1032 hPa-
20/01/2022 05:143.2 °C94 %2.2 °C---3.3 1032 hPa-
20/01/2022 05:003.2 °C94 %2.2 °C---3.3 1032 hPa-
20/01/2022 04:593.2 °C94 %2.2 °C---3.3 1032 hPa-
20/01/2022 04:453.2 °C94 %2.2 °C---3.3 1033 hPa-
20/01/2022 04:443.2 °C94 %2.2 °C---3.3 1032 hPa-
20/01/2022 04:303.2 °C94 %2.2 °C---3.3 1032 hPa-
20/01/2022 04:293.2 °C94 %2.2 °C---3.3 1032 hPa-
20/01/2022 04:153.2 °C94 %2.2 °C---3.3 1032 hPa-
20/01/2022 04:143.2 °C94 %2.2 °C---3.3 1032 hPa-
20/01/2022 04:003.1 °C94 %2.2 °C---3.3 1032 hPa-
20/01/2022 03:593.2 °C94 %2.2 °C---3.3 1032 hPa-
20/01/2022 03:453.1 °C94 %2.2 °C---3.3 1033 hPa-
20/01/2022 03:443.1 °C94 %2.2 °C---3.3 1033 hPa-
20/01/2022 03:303.1 °C94 %2.2 °C---3.3 1033 hPa-
20/01/2022 03:293.1 °C94 %2.2 °C---3.3 1033 hPa-
20/01/2022 03:153.1 °C94 %2.2 °C---3.3 1033 hPa-
20/01/2022 03:143.1 °C94 %2.2 °C---3.3 1033 hPa-
20/01/2022 03:003.1 °C94 %2.2 °C---3.3 1033 hPa-
20/01/2022 02:593.1 °C94 %2.2 °C---3.3 1033 hPa-
20/01/2022 02:453.1 °C94 %2.2 °C---3.3 1033 hPa-
20/01/2022 02:443.1 °C94 %2.2 °C---3.3 1033 hPa-
20/01/2022 02:303.2 °C94 %2.2 °C---3.3 1033 hPa-
20/01/2022 02:293.2 °C94 %2.2 °C---3.3 1033 hPa-
20/01/2022 02:153.2 °C94 %2.2 °C---3.3 1033 hPa-
20/01/2022 02:143.2 °C94 %2.2 °C---3.3 1033 hPa-
20/01/2022 02:003.2 °C94 %2.2 °C---3.3 1033 hPa-
20/01/2022 01:593.2 °C94 %2.2 °C---3.3 1033 hPa-
20/01/2022 01:453.3 °C94 %2.2 °C---3.3 1033 hPa-
20/01/2022 01:443.3 °C94 %2.2 °C---3.3 1033 hPa-
20/01/2022 01:303.3 °C94 %2.8 °C---3.3 1033 hPa-
20/01/2022 01:293.3 °C94 %2.2 °C---3.3 1033 hPa-
20/01/2022 01:153.3 °C94 %2.8 °C---3.3 1033 hPa-
20/01/2022 01:143.3 °C94 %2.8 °C---3.3 1033 hPa-
20/01/2022 01:003.3 °C94 %2.8 °C---3.3 1033 hPa-
20/01/2022 00:453.3 °C94 %2.2 °C---3.3 1033 hPa-
20/01/2022 00:303.2 °C94 %2.2 °C---3.3 1033 hPa-
20/01/2022 00:153.2 °C93 %2.2 °C---3.3 1033 hPa-
20/01/2022 00:003.2 °C93 %2.2 °C-N16 km/h3.3 1033 hPa0.2 mm


Minima :

Température : 3.1 °C
Humidité : 80 %
Point de rosée : 2.2 °C
Vent moyen : 13 km/h
Windchill : 1.7
Pression atm. : 1032 hPa
Maxima :

Température : 6.2 °C
Humidité : 97 %
Point de rosée : 4.4 °C
Vent moyen : 13 km/h
Windchill : 6.1
Pression atm. : 1035 hPa
Rafales max : 18 km/h
Cumul de pluie sur 24H : 1 mm

Beddes est une commune du département Cher (18).
La station météorologique du réseau de l'association la plus proche de Beddes est celle de Culan



Icône Facebook Association Météo Centre Icône Twitter Association Météo Centre Icône Chaîne Youtube Association Météo Centre Icône contact Association Météo Centre Icône Insta Association Météo Centre